Location: Unspecified
(43.0000°N, 0.0000°E)
Time: 06:49:03
(UTC+00:00)

PicSat - Pass Details

Date: 20 July 2019
Orbit: 486 x 500 km, 97.5° (Epoch: 25 August)

Event Time Altitude Azimuth Distance (km) Brightness Sun altitude
Exits shadow 22:05:26 32° 228° (SW) 865 ? -20.6°
Maximum altitude 22:06:18 38° 262° (W) 775 ? -20.7°
Drops below altitude 10° 22:09:44 10° 332° (NNW) 1,699 ? -21.0°
Sets 22:11:55 0° 340° (NNW) 2,584 ? -21.2°
